TimeCDT,TemperatureF,Dew PointF,Humidity,Sea Level PressureIn,VisibilityMPH,Wind Direction,Wind SpeedMPH,Gust SpeedMPH,PrecipitationIn,Events,Conditions,WindDirDegrees,DateUTC
12:07 AM,66.2,64.4,94,29.96,0.8,Calm,Calm,-,N/A,,Overcast,0,2013-05-18 05:07:00
12:21 AM,66.2,64.4,94,29.96,1.0,Calm,Calm,-,N/A,,Mist,0,2013-05-18 05:21:00
12:35 AM,64.4,62.6,94,29.96,0.5,Calm,Calm,-,N/A,Fog,Fog,0,2013-05-18 05:35:00
12:49 AM,64.4,62.6,94,29.96,0.2,Calm,Calm,-,N/A,Fog,Fog,0,2013-05-18 05:49:00
12:53 AM,64.9,63.0,93,29.95,0.2,Calm,Calm,-,N/A,Fog,Fog,0,2013-05-18 05:53:00
1:21 AM,64.4,62.6,94,29.95,0.8,Calm,Calm,-,N/A,,Mist,0,2013-05-18 06:21:00
1:27 AM,64.4,62.6,94,29.95,2.5,Calm,Calm,-,N/A,,Overcast,0,2013-05-18 06:27:00
1:36 AM,64.4,62.6,94,29.95,0.8,Calm,Calm,-,N/A,,Mist,0,2013-05-18 06:36:00
1:53 AM,64.0,62.1,93,29.94,0.5,Calm,Calm,-,N/A,Fog,Fog,0,2013-05-18 06:53:00
2:14 AM,64.4,62.6,94,29.95,1.2,Calm,Calm,-,N/A,,Scattered Clouds,0,2013-05-18 07:14:00
2:20 AM,64.4,62.6,94,29.94,3.0,Calm,Calm,-,N/A,,Scattered Clouds,0,2013-05-18 07:20:00
2:53 AM,63.0,61.0,93,29.94,5.0,Calm,Calm,-,N/A,,Partly Cloudy,0,2013-05-18 07:53:00
3:10 AM,62.6,60.8,94,29.95,2.5,Calm,Calm,-,N/A,,Mostly Cloudy,0,2013-05-18 08:10:00
3:15 AM,62.6,60.8,94,29.94,0.8,Calm,Calm,-,N/A,,Mist,0,2013-05-18 08:15:00
3:28 AM,62.6,60.8,94,29.94,0.2,Calm,Calm,-,N/A,Fog,Fog,0,2013-05-18 08:28:00
3:35 AM,62.6,60.8,94,29.94,0.8,Calm,Calm,-,N/A,,Mist,0,2013-05-18 08:35:00
3:46 AM,62.6,60.8,94,29.95,1.5,Calm,Calm,-,N/A,,Mostly Cloudy,0,2013-05-18 08:46:00
3:50 AM,62.6,60.8,94,29.95,3.0,Calm,Calm,-,N/A,,Mostly Cloudy,0,2013-05-18 08:50:00
3:53 AM,63.0,61.0,93,29.94,5.0,Calm,Calm,-,N/A,,Mostly Cloudy,0,2013-05-18 08:53:00
4:09 AM,62.6,60.8,94,29.95,1.8,Calm,Calm,-,N/A,,Mostly Cloudy,0,2013-05-18 09:09:00
4:21 AM,62.6,60.8,94,29.95,3.0,Calm,Calm,-,N/A,,Overcast,0,2013-05-18 09:21:00
4:34 AM,62.6,60.8,94,29.95,1.8,Calm,Calm,-,N/A,,Overcast,0,2013-05-18 09:34:00
4:43 AM,62.6,60.8,94,29.95,0.2,Calm,Calm,-,N/A,Fog,Fog,0,2013-05-18 09:43:00
4:53 AM,63.0,61.0,93,29.94,0.2,Calm,Calm,-,N/A,Fog,Fog,0,2013-05-18 09:53:00
5:53 AM,64.0,62.1,93,29.96,0.2,Calm,Calm,-,N/A,Fog,Fog,0,2013-05-18 10:53:00
6:53 AM,64.0,62.1,93,29.97,0.2,Calm,Calm,-,N/A,Fog,Fog,0,2013-05-18 11:53:00
7:53 AM,64.9,63.0,93,29.99,0.2,NE,3.5,-,N/A,Fog,Fog,50,2013-05-18 12:53:00
8:53 AM,66.0,64.0,93,30.00,0.2,ENE,5.8,-,N/A,Fog,Fog,60,2013-05-18 13:53:00
9:40 AM,66.2,64.4,94,30.01,1.0,Calm,Calm,-,N/A,,Overcast,0,2013-05-18 14:40:00
9:53 AM,68.0,66.0,93,30.01,2.0,SE,4.6,-,N/A,,Overcast,140,2013-05-18 14:53:00
10:16 AM,68.0,66.2,94,30.02,3.0,ESE,3.5,-,N/A,,Overcast,110,2013-05-18 15:16:00
10:44 AM,69.8,66.2,88,30.01,4.0,ESE,4.6,-,N/A,,Overcast,120,2013-05-18 15:44:00
10:53 AM,69.1,66.0,90,30.01,4.0,SE,3.5,-,N/A,,Overcast,140,2013-05-18 15:53:00
11:53 AM,72.0,66.9,84,29.99,3.0,SE,3.5,-,N/A,,Haze,140,2013-05-18 16:53:00
12:03 PM,73.4,66.2,78,29.99,3.0,Calm,Calm,-,N/A,,Haze,0,2013-05-18 17:03:00
12:42 PM,73.4,66.2,78,29.98,2.5,Calm,Calm,-,N/A,,Haze,0,2013-05-18 17:42:00
12:53 PM,75.0,66.0,73,29.96,2.5,NE,3.5,-,N/A,,Haze,50,2013-05-18 17:53:00
1:11 PM,75.2,66.2,73,29.97,3.0,Calm,Calm,-,N/A,,Haze,0,2013-05-18 18:11:00
1:34 PM,77.0,66.2,69,29.96,3.0,Variable,3.5,-,N/A,,Haze,0,2013-05-18 18:34:00
2:53 PM,80.1,66.9,64,29.94,6.0,South,4.6,-,N/A,,Haze,180,2013-05-18 19:53:00
3:53 PM,82.9,69.1,63,29.92,5.0,Calm,Calm,-,N/A,,Haze,0,2013-05-18 20:53:00
4:53 PM,82.9,68.0,60,29.91,7.0,Calm,Calm,-,N/A,,Clear,0,2013-05-18 21:53:00
5:53 PM,82.9,69.1,63,29.89,9.0,Calm,Calm,-,N/A,,Clear,0,2013-05-18 22:53:00
6:53 PM,82.0,69.1,65,29.89,10.0,East,4.6,-,N/A,,Mostly Cloudy,80,2013-05-18 23:53:00
7:53 PM,80.1,72.0,76,29.89,9.0,NNE,3.5,-,N/A,,Overcast,20,2013-05-19 00:53:00
8:53 PM,79.0,70.0,74,29.89,10.0,East,4.6,-,N/A,,Overcast,80,2013-05-19 01:53:00
9:53 PM,78.1,68.0,71,29.89,10.0,ESE,9.2,-,0.00,Rain,Light Rain,120,2013-05-19 02:53:00
10:09 PM,78.8,68.0,69,29.89,10.0,ESE,8.1,-,0.00,,Overcast,110,2013-05-19 03:09:00
10:30 PM,78.8,69.8,74,29.90,10.0,ESE,8.1,-,0.00,,Overcast,120,2013-05-19 03:30:00
10:53 PM,78.1,69.1,74,29.88,10.0,SSE,6.9,-,0.00,,Overcast,150,2013-05-19 03:53:00
11:53 PM,75.9,69.1,79,29.88,10.0,Calm,Calm,-,N/A,,Overcast,0,2013-05-19 04:53:00